Location: Kershaw
(34.5481°N, 80.5823°W)
Time: 16:02:17
(UTC+00:00)

Vanguard 1 Rocket - Pass Details

Date: 05 October 2022
Orbit: 650 x 4225 km, 34.3° (Epoch: 08 December)

Event Time Altitude Azimuth Distance (km) Brightness Sun altitude
Rises 22:58:16 0° 230° (SW) 8,412 13.4 -0.3°
Reaches altitude 10° 23:04:14 10° 227° (SW) 7,424 13.0 -1.5°
Maximum altitude 23:29:07 62° 154° (SSE) 3,698 10.4 -6.6°
Drops below altitude 10° 23:44:20 10° 79° (ENE) 4,874 10.5 -9.8°
Enters shadow 23:44:23 10° 79° (ENE) 4,884 10.5 -9.8°
Sets 23:47:18 0° 75° (ENE) 5,512 - -10.4°
